Total_Precipitation_Accumulation
0.70 0.49 0.65 0.72 0.66 0.65 0.61 0.61 0.59 0.56 0.52 0.49 0.45 0.42 0.41 0.42 0.44 0.47 0.44 0.35 0.31 0.28 0.25 0.31 0.36 0.30 0.30 0.34 0.37 0.41 0.47 0.48 0.40 0.33 0.35 0.39 0.39 0.45 0.59 0.72 0.86 0.91 0.68
0.52 0.45 0.73 0.78 0.74 0.71 0.67 0.63 0.62 0.57 0.51 0.49 0.48 0.44 0.42 0.44 0.46 0.45 0.39 0.35 0.32 0.28 0.28 0.35 0.39 0.33 0.35 0.41 0.50 0.57 0.62 0.56 0.47 0.39 0.48 0.55 0.51 0.54 0.62 0.72 0.99 0.94 0.62
0.46 0.45 0.63 0.81 0.82 0.77 0.71 0.67 0.67 0.61 0.50 0.48 0.50 0.47 0.41 0.38 0.37 0.36 0.36 0.33 0.32 0.31 0.32 0.37 0.41 0.35 0.36 0.45 0.56 0.59 0.60 0.58 0.51 0.53 0.94 1.50 1.09 0.72 0.66 0.77 0.82 0.70 0.57
0.42 0.46 0.60 0.85 0.90 0.85 0.78 0.75 0.84 0.76 0.62 0.56 0.53 0.49 0.43 0.38 0.41 0.47 0.48 0.40 0.37 0.36 0.33 0.37 0.45 0.38 0.38 0.45 0.49 0.48 0.51 0.52 0.56 0.77 1.40 1.84 1.59 1.01 0.89 0.87 0.78 0.70 0.59
0.46 0.50 0.76 0.94 0.85 0.82 0.82 0.92 1.06 0.96 0.85 0.73 0.62 0.55 0.50 0.47 0.47 0.54 0.49 0.48 0.47 0.43 0.42 0.48 0.53 0.46 0.41 0.39 0.39 0.40 0.49 0.66 0.81 0.94 1.31 1.54 1.63 1.24 1.02 0.89 0.83 0.73 0.69
0.51 0.57 0.71 0.85 0.84 0.84 0.88 0.98 1.03 1.05 1.07 0.88 0.73 0.66 0.65 0.63 0.61 0.63 0.63 0.57 0.57 0.55 0.55 0.56 0.53 0.51 0.48 0.46 0.43 0.45 0.58 0.79 0.92 1.08 1.32 1.41 1.43 1.15 0.98 0.88 0.87 0.85 0.82
0.46 0.51 0.56 0.72 0.72 0.76 0.86 0.96 0.96 1.03 1.11 0.97 0.75 0.75 0.78 0.71 0.71 0.73 0.76 0.65 0.63 0.60 0.60 0.62 0.57 0.54 0.53 0.52 0.51 0.53 0.59 0.63 0.77 1.01 1.30 1.50 1.26 1.00 0.96 0.85 0.86 0.91 0.94
0.57 0.51 0.54 0.66 0.70 0.74 0.84 0.96 0.89 0.93 1.04 0.98 0.88 0.83 0.77 0.77 0.80 0.82 0.78 0.73 0.67 0.66 0.65 0.67 0.66 0.60 0.57 0.56 0.56 0.60 0.63 0.57 0.60 0.76 0.87 1.28 1.38 1.17 0.91 0.85 0.89 0.87 0.86
0.93 0.81 0.65 0.58 0.61 0.68 0.82 0.94 0.95 0.95 0.98 0.94 1.00 0.94 0.92 0.89 0.83 0.78 0.76 0.75 0.74 0.73 0.72 0.70 0.65 0.62 0.60 0.59 0.57 0.61 0.66 0.60 0.64 0.70 0.67 1.10 1.33 1.22 0.93 0.83 0.85 0.92 0.88
0.99 0.94 0.81 0.72 0.71 0.73 0.71 0.87 1.07 1.13 1.09 0.99 0.98 0.97 0.97 0.91 0.82 0.76 0.70 0.71 0.76 0.77 0.81 0.81 0.73 0.71 0.67 0.62 0.60 0.65 0.69 0.59 0.55 0.58 0.67 0.90 1.21 1.22 1.07 0.81 0.71 0.69 0.68
0.82 0.82 0.83 0.86 0.89 0.95 0.95 0.93 1.15 1.23 1.16 0.97 0.87 0.90 0.92 0.78 0.80 0.82 0.70 0.82 0.82 0.87 0.91 0.90 0.85 0.82 0.73 0.63 0.66 0.74 0.62 0.50 0.61 0.59 0.66 0.79 1.06 1.13 1.10 0.89 0.64 0.55 0.52
0.67 0.66 0.66 0.69 0.77 0.89 0.97 1.30 1.51 1.30 1.19 0.92 0.91 0.81 0.87 0.94 1.02 0.85 0.79 0.95 0.97 1.01 0.98 0.97 0.99 0.92 0.75 0.56 0.61 0.66 0.50 0.51 0.59 0.51 0.58 0.76 0.99 1.03 0.96 0.84 0.65 0.52 0.48
0.51 0.48 0.48 0.47 0.49 0.58 0.78 1.12 1.41 1.52 1.48 1.40 1.16 0.93 0.94 0.82 0.72 0.67 0.69 0.80 0.87 0.95 0.90 0.93 0.93 0.78 0.69 0.63 0.57 0.49 0.47 0.50 0.62 0.61 0.69 0.79 0.91 0.99 0.94 0.83 0.67 0.56 0.48
0.49 0.48 0.45 0.44 0.41 0.43 0.52 0.69 0.89 1.03 1.12 1.14 0.99 0.88 0.95 0.84 0.74 0.75 0.75 0.75 0.75 0.83 0.92 0.95 0.90 0.76 0.64 0.57 0.53 0.52 0.52 0.51 0.67 0.82 0.90 0.73 0.80 0.91 0.95 0.87 0.74 0.64 0.54
0.53 0.60 0.56 0.47 0.44 0.43 0.47 0.54 0.62 0.77 0.86 0.89 0.91 0.86 0.90 0.90 0.87 0.84 0.77 0.77 0.71 0.77 0.87 0.94 0.89 0.80 0.73 0.66 0.62 0.65 0.67 0.69 0.72 0.76 0.82 0.75 0.82 0.96 1.06 1.02 0.89 0.75 0.64
0.54 0.60 0.65 0.57 0.53 0.49 0.46 0.49 0.54 0.64 0.72 0.76 0.75 0.75 0.85 0.94 0.93 0.90 0.85 0.86 0.83 0.84 0.96 0.94 0.85 0.88 0.85 0.74 0.61 0.61 0.66 0.72 0.76 0.73 0.75 0.84 0.83 0.82 1.00 1.16 1.13 0.92 0.81
0.54 0.57 0.60 0.61 0.61 0.59 0.57 0.56 0.56 0.63 0.73 0.75 0.72 0.67 0.69 0.78 0.83 0.86 0.87 0.87 0.91 0.99 1.04 1.06 0.89 0.89 0.83 0.73 0.66 0.61 0.58 0.62 0.64 0.68 0.65 0.62 0.69 0.75 0.88 1.10 1.21 1.08 0.99
0.47 0.48 0.52 0.54 0.59 0.66 0.68 0.69 0.71 0.71 0.78 0.75 0.74 0.68 0.63 0.68 0.77 0.90 0.90 0.88 0.91 1.03 1.10 1.14 1.04 0.96 0.88 0.83 0.79 0.71 0.64 0.65 0.61 0.66 0.64 0.57 0.67 0.64 0.76 0.82 0.95 1.03 1.05
0.42 0.42 0.44 0.49 0.51 0.63 0.71 0.73 0.82 0.84 0.86 0.83 0.82 0.74 0.71 0.76 0.83 1.00 1.10 1.11 1.11 1.12 1.10 1.05 1.09 1.04 0.98 0.96 0.91 0.86 0.77 0.68 0.67 0.61 0.62 0.65 0.60 0.66 0.74 0.56 0.57 0.64 0.80
0.32 0.35 0.39 0.44 0.46 0.53 0.68 0.80 0.96 1.07 1.04 1.06 1.00 0.89 0.91 1.05 1.18 1.32 1.32 1.39 1.46 1.32 1.26 1.19 1.20 1.15 1.06 1.06 1.00 0.89 0.81 0.70 0.72 0.71 0.71 0.71 0.67 0.63 0.71 0.61 0.53 0.43 0.49
0.22 0.26 0.31 0.36 0.43 0.51 0.59 0.73 0.95 1.23 1.33 1.43 1.39 1.21 1.16 1.28 1.52 1.72 1.69 1.73 1.75 1.61 1.55 1.60 1.79 1.73 1.46 1.23 1.22 1.05 0.87 0.71 0.76 0.76 0.72 0.74 0.73 0.80 0.87 0.78 0.62 0.54 0.43
0.16 0.17 0.23 0.31 0.41 0.50 0.58 0.76 0.91 1.06 1.07 1.24 1.40 1.38 1.30 1.29 1.44 1.57 1.82 1.91 1.83 1.83 1.93 1.97 2.27 2.39 1.97 1.56 1.53 1.61 1.33 1.10 0.81 0.65 0.68 0.68 0.75 0.95 0.93 0.78 0.70 0.58 0.50
0.11 0.12 0.16 0.24 0.35 0.47 0.62 0.86 1.07 1.26 1.35 1.41 1.34 1.43 1.44 1.37 1.41 1.51 1.66 1.82 1.82 1.88 1.95 2.06 2.38 2.82 2.57 2.07 1.83 1.99 1.67 1.46 1.25 0.82 0.64 0.66 0.76 0.94 1.03 0.96 0.89 0.78 0.64
0.09 0.09 0.13 0.22 0.37 0.58 0.79 1.04 1.30 1.50 1.54 1.43 1.48 1.51 1.39 1.33 1.30 1.37 1.51 1.64 1.76 1.78 1.90 1.99 2.10 2.56 2.86 2.55 2.26 1.93 1.59 1.50 1.55 1.30 0.89 0.77 0.82 0.88 0.96 0.94 0.92 0.97 0.89
0.15 0.17 0.24 0.45 0.70 0.95 1.16 1.42 1.71 1.70 1.59 1.50 1.50 1.47 1.42 1.43 1.40 1.39 1.53 1.60 1.61 1.66 1.76 2.08 2.34 2.58 2.76 2.69 2.58 2.41 2.16 1.85 1.46 1.50 1.41 1.10 0.99 0.93 0.93 0.97 0.98 0.98 0.99
0.46 0.60 0.80 1.07 1.26 1.34 1.47 1.62 1.74 1.71 1.72 1.67 1.49 1.39 1.39 1.43 1.49 1.53 1.59 1.59 1.56 1.59 1.69 1.91 2.18 2.39 2.70 2.86 2.75 2.52 2.35 2.17 1.91 1.74 1.50 1.37 1.31 1.10 1.04 1.03 0.99 1.00 1.05